sat.trackr.live / text

‹ back to catalog

STARLINK-4079

NORAD 52666 · 2022-053L

PAYLOAD ACTIVE UNKNOWN

§ Identity

Operator
Country
US
Launch date
2022-05-18
Launch site
AFETR
Launch vehicle
Mass (kg)
RCS (m²)

Purposes: comms

External: N2YO · Heavens-Above · Gunter

§ Orbital elements

Epoch: 2026-05-25T01:45:36.790272Z

Period
95.44 min
Inclination
53.2139°
Eccentricity
0.0001002
Mean motion
15.08837671 rev/d
Perigee alt
539.1 km
Apogee alt
540.4 km
Semi-major
6,917.9 km
B*
-1.6973e-5
RAAN
170.8338°
Arg perigee
77.4642°
Mean anomaly
282.6463°
Rev number
22,258

§ Raw data

STARLINK-40791 52666U 22053L   26145.07334248 -.00000558  00000+0 -16973-4 0  99952 52666  53.2139 170.8338 0001002  77.4642 282.6463 15.08837671222589

JSON: /api/v1/satellites/52666 · /tle

For live sub-satellite position, see the globe view (requires WebGL).

§ Visibility from observer

Set your observer location to see the next 7 days of passes ≥ 10°. The values pass through the URL so the page stays shareable.

No JS? Fill the form by hand. The geolocation button needs JavaScript.